Location: Capel Gartheli
(52.1833°N, 4.0667°W)
Time: 18:22:43
(UTC+00:00)

IDEFIX/ARIANE 42P - Pass Details

Date: 18 February 2020
Orbit: 784 x 803 km, 98.3° (Epoch: 27 March)

Event Time Altitude Azimuth Distance (km) Brightness Sun altitude
Rises 03:16:22 0° 19° (NNE) 3,321 6.4 -37.7°
Reaches altitude 10° 03:18:52 10° 27° (NNE) 2,383 5.6 -37.4°
Enters shadow 03:21:52 29° 52° (NE) 1,423 4.3 -37.0°
